Home   Weather   Bruck an der Leitha   Past weeks
Flag for Austria

Past Weather in Bruck an der Leitha, Lower Austria, Austria — Yesterday and Last 2 Weeks

Now
65 °F

Partly sunny.


Feels Like: 65 °F
Forecast: 71 / 57 °F
Wind: 5 mph from Northwest

Location: Wien / Schwechat-Flughafen

Current Time: May 26, 2019 at 9:27:42 am

Latest Report: May 26, 2019 at 8:00 am


Visibility: 25 mi

Pressure: 29.98 "Hg

Humidity: 66%

Dew Point: 53 °F

Location of Bruck an der LeithaLocation

Past Weather in Bruck an der Leitha — Graph

°F

Bruck an der Leitha Temperature Yesterday

Maximum temperature yesterday: 74 °F (at 5:00 pm)
Minimum temperature yesterday: 49 °F (at 6:00 am)
Average temperature yesterday: 65 °F

High & Low Weather Summary for the Past Weeks

 TemperatureHumidityPressure
High74 °F (May 25, 5:00 pm)99% (May 17, 7:00 am)30.42 "Hg (May 17, 7:00 am)
Low42 °F (May 15, 6:00 am)37% (May 24, 5:00 pm)29.58 "Hg (May 20, 5:00 am)
Average55 °F75%29.93 "Hg
* Reported May 11 8:00 am — May 26 8:00 am, Bruck an der Leitha. Weather by CustomWeather, © 2019

Note: Actual official high and low records may vary slightly from our data, if they occured in-between our weather recording intervals... More about our weather records

Advertising

Bruck an der Leitha Weather History for the Previous 24 Hours

Scroll right to see more
 ConditionsComfort  
Time TempWeatherWind HumidityBarometerVisibility
8:00 am
Sun, May 26
65 °FPartly sunny.5 mph66%29.98 "Hg25 mi
7:00 am63 °FOvercast.5 mph69%29.97 "Hg31 mi
6:00 am61 °FOvercast.2 mph73%29.97 "Hg34 mi
5:00 am62 °FOvercast.2 mph72%29.96 "Hg28 mi
4:00 am63 °FOvercast.3 mph72%29.96 "Hg28 mi
2:00 am64 °FOvercast.3 mph65%29.95 "Hg25 mi
1:00 am63 °FOvercast.2 mph70%29.96 "Hg16 mi
11:00 pm
Sat, May 25
62 °FOvercast.1 mph72%29.95 "Hg19 mi
9:00 pm63 °FPassing clouds.2 mph66%29.92 "Hg22 mi
8:00 pm71 °FPartly sunny.2 mph49%29.90 "Hg25 mi
7:00 pm72 °FScattered clouds.1 mph47%29.90 "Hg28 mi
6:00 pm74 °FScattered clouds.1 mph39%29.90 "Hg25 mi
5:00 pm74 °FPassing clouds.2 mph42%29.90 "Hg22 mi
4:00 pm74 °FPassing clouds.2 mph38%29.91 "Hg19 mi
3:00 pm73 °FPassing clouds.3 mph42%29.93 "Hg25 mi
2:00 pm73 °FPassing clouds.2 mph45%29.93 "Hg19 mi
1:00 pm72 °FPassing clouds.2 mph42%29.95 "Hg28 mi
12:00 pm71 °FScattered clouds.1 mph48%29.96 "Hg31 mi
11:00 am68 °FPartly sunny.2 mph56%29.96 "Hg19 mi
9:00 am62 °FPartly sunny.1 mph67%29.96 "Hg19 mi
Weather by CustomWeather, © 2019

See weather overview